Terminal Aerodrome Forecast
Issued by NWS

Home | Current Version | Previous Version | Text Only | Print | Product List | Glossary On
Versions: 1 2 3 4 5 6 7 8 9 10 11 12 13 14 15 16 17 18 19 20 21 22 23 24 25 26 27 28 29 30 31 32 33 34 35 36 37 38 39 40 41 42 43 44 45 46
000
FTUS46 KPQR 052322
TAFONP
TAF
KONP 052322Z 0600/0624 23009KT P6SM SCT012
     FM060100 21009KT 5SM BR OVC010
     FM060500 20004KT 2SM BR OVC006
     FM061000 19006KT 1SM BR OVC005
     FM061600 22007KT P6SM OVC007
     FM062100 23009KT P6SM BKN015=

USA.gov is the U.S. government's official web portal to all federal, state and local government web resources and services.